TimeMDT,TemperatureF,Dew PointF,Humidity,Sea Level PressureIn,VisibilityMPH,Wind Direction,Wind SpeedMPH,Gust SpeedMPH,PrecipitationIn,Events,Conditions,WindDirDegrees,DateUTC
12:06 AM,19.4,19.4,100,30.26,10.0,SW,11.5,-,N/A,,Overcast,220,2013-10-15 06:06:00
12:26 AM,19.4,19.4,100,30.25,10.0,SW,13.8,-,N/A,,Scattered Clouds,220,2013-10-15 06:26:00
12:46 AM,19.4,19.4,100,30.25,10.0,SW,15.0,-,N/A,,Clear,230,2013-10-15 06:46:00
1:06 AM,19.4,19.4,100,30.24,10.0,SW,13.8,-,N/A,,Clear,230,2013-10-15 07:06:00
1:26 AM,19.4,19.4,100,30.24,10.0,SW,9.2,-,N/A,,Clear,230,2013-10-15 07:26:00
1:46 AM,19.4,19.4,100,30.24,10.0,SW,9.2,-,N/A,,Clear,230,2013-10-15 07:46:00
2:06 AM,19.4,19.4,100,30.24,10.0,SW,9.2,-,N/A,,Clear,230,2013-10-15 08:06:00
2:26 AM,19.4,17.6,93,30.24,10.0,SW,11.5,-,N/A,,Clear,230,2013-10-15 08:26:00
2:46 AM,19.4,19.4,100,30.23,10.0,SW,13.8,17.3,N/A,,Clear,230,2013-10-15 08:46:00
3:06 AM,19.4,19.4,100,30.22,10.0,SW,15.0,-,N/A,,Clear,230,2013-10-15 09:06:00
3:26 AM,19.4,17.6,93,30.22,10.0,SW,10.4,-,N/A,,Clear,230,2013-10-15 09:26:00
3:46 AM,19.4,17.6,93,30.22,10.0,SW,12.7,-,N/A,,Clear,220,2013-10-15 09:46:00
4:06 AM,19.4,17.6,93,30.21,10.0,SW,12.7,-,N/A,,Clear,230,2013-10-15 10:06:00
4:26 AM,17.6,17.6,100,30.21,10.0,SW,11.5,-,N/A,,Clear,230,2013-10-15 10:26:00
4:46 AM,17.6,17.6,100,30.20,10.0,SW,15.0,-,N/A,,Clear,230,2013-10-15 10:46:00
5:06 AM,17.6,14.0,86,30.20,10.0,SW,12.7,-,N/A,,Clear,230,2013-10-15 11:06:00
5:26 AM,17.6,14.0,86,30.20,10.0,SW,10.4,-,N/A,,Clear,220,2013-10-15 11:26:00
5:46 AM,17.6,15.8,93,30.20,10.0,SW,9.2,-,N/A,,Clear,220,2013-10-15 11:46:00
6:06 AM,17.6,15.8,93,30.21,10.0,SW,8.1,-,N/A,,Clear,220,2013-10-15 12:06:00
6:26 AM,15.8,14.0,93,30.21,10.0,SW,6.9,-,N/A,,Clear,220,2013-10-15 12:26:00
6:46 AM,15.8,14.0,93,30.21,10.0,SW,8.1,-,N/A,,Clear,220,2013-10-15 12:46:00
7:06 AM,15.8,14.0,93,30.21,10.0,SW,6.9,-,N/A,,Clear,230,2013-10-15 13:06:00
7:26 AM,15.8,14.0,93,30.22,10.0,SW,8.1,-,N/A,,Clear,220,2013-10-15 13:26:00
7:46 AM,17.6,14.0,86,30.22,10.0,SSW,5.8,-,N/A,,Clear,210,2013-10-15 13:46:00
8:06 AM,17.6,14.0,86,30.22,10.0,SW,5.8,-,N/A,,Clear,220,2013-10-15 14:06:00
8:26 AM,19.4,14.0,80,30.24,10.0,SW,6.9,-,N/A,,Clear,220,2013-10-15 14:26:00
8:46 AM,19.4,14.0,80,30.24,10.0,SSW,9.2,-,N/A,,Clear,210,2013-10-15 14:46:00
9:06 AM,21.2,14.0,74,30.24,10.0,SSW,10.4,-,N/A,,Clear,200,2013-10-15 15:06:00
9:25 AM,21.2,14.0,74,30.24,10.0,SSW,9.2,-,N/A,,Clear,200,2013-10-15 15:25:00
9:45 AM,23.0,14.0,68,30.24,10.0,SSW,11.5,20.7,N/A,,Scattered Clouds,210,2013-10-15 15:45:00
10:05 AM,23.0,14.0,68,30.24,10.0,South,10.4,19.6,N/A,,Mostly Cloudy,190,2013-10-15 16:05:00
10:25 AM,23.0,14.0,68,30.24,10.0,South,11.5,17.3,N/A,,Overcast,190,2013-10-15 16:25:00
10:45 AM,23.0,12.2,63,30.24,10.0,SSW,15.0,23.0,N/A,,Overcast,210,2013-10-15 16:45:00
11:05 AM,26.6,12.2,55,30.24,10.0,SW,11.5,28.8,N/A,,Overcast,230,2013-10-15 17:05:00
11:25 AM,26.6,12.2,55,30.23,10.0,WSW,11.5,26.5,N/A,,Mostly Cloudy,240,2013-10-15 17:25:00
11:45 AM,24.8,12.2,59,30.23,10.0,SSW,15.0,24.2,N/A,,Mostly Cloudy,210,2013-10-15 17:45:00
12:04 PM,24.8,14.0,64,30.23,10.0,SW,16.1,21.9,N/A,,Mostly Cloudy,220,2013-10-15 18:04:00
12:25 PM,26.6,14.0,59,30.22,10.0,SSW,11.5,21.9,N/A,,Overcast,210,2013-10-15 18:25:00
12:45 PM,24.8,12.2,59,30.22,10.0,South,13.8,21.9,N/A,,Overcast,190,2013-10-15 18:45:00
1:05 PM,28.4,12.2,51,30.21,10.0,SSW,17.3,27.6,N/A,,Overcast,210,2013-10-15 19:05:00
1:16 PM,28.4,12.2,51,30.20,10.0,SSW,18.4,29.9,N/A,,Overcast,210,2013-10-15 19:16:00
4:06 PM,28.4,14.0,55,30.17,10.0,SSW,15.0,24.2,N/A,,Overcast,210,2013-10-15 22:06:00
4:26 PM,28.4,14.0,55,30.17,10.0,SW,9.2,23.0,N/A,,Overcast,220,2013-10-15 22:26:00
4:46 PM,28.4,15.8,59,30.16,10.0,SSW,17.3,27.6,N/A,,Overcast,210,2013-10-15 22:46:00
5:06 PM,28.4,14.0,55,30.17,10.0,SW,9.2,24.2,N/A,,Overcast,220,2013-10-15 23:06:00
5:26 PM,26.6,15.8,64,30.16,10.0,SW,15.0,23.0,N/A,,Overcast,230,2013-10-15 23:26:00
5:46 PM,26.6,15.8,64,30.16,10.0,SW,17.3,26.5,N/A,,Overcast,230,2013-10-15 23:46:00
6:06 PM,26.6,14.0,59,30.17,10.0,SW,17.3,23.0,N/A,,Overcast,230,2013-10-16 00:06:00
6:26 PM,26.6,14.0,59,30.17,10.0,WSW,10.4,-,N/A,,Overcast,240,2013-10-16 00:26:00
6:46 PM,26.6,14.0,59,30.17,10.0,SW,11.5,-,N/A,,Overcast,220,2013-10-16 00:46:00
7:06 PM,26.6,14.0,59,30.17,10.0,SW,8.1,-,N/A,,Overcast,220,2013-10-16 01:06:00
7:26 PM,24.8,15.8,69,30.18,10.0,South,6.9,18.4,N/A,,Overcast,190,2013-10-16 01:26:00
7:46 PM,24.8,15.8,69,30.19,10.0,SSW,4.6,-,N/A,,Overcast,210,2013-10-16 01:46:00
8:06 PM,23.0,19.4,86,30.18,10.0,NW,4.6,-,N/A,Snow,Light Snow,310,2013-10-16 02:06:00
8:26 PM,21.2,19.4,93,30.17,4.0,NNW,5.8,-,N/A,Snow,Light Snow,340,2013-10-16 02:26:00
8:46 PM,21.2,19.4,93,30.18,2.5,NNE,5.8,-,N/A,Snow,Light Snow,30,2013-10-16 02:46:00
9:06 PM,21.2,21.2,100,30.19,1.2,NE,5.8,-,0.01,Snow,Light Snow,40,2013-10-16 03:06:00
9:26 PM,21.2,21.2,100,30.19,1.2,ENE,4.6,-,0.01,Snow,Light Snow,70,2013-10-16 03:26:00
9:46 PM,21.2,21.2,100,30.17,5.0,East,8.1,-,0.01,Snow,Light Snow,80,2013-10-16 03:46:00
10:06 PM,21.2,21.2,100,30.19,5.0,Calm,Calm,-,N/A,Snow,Light Snow,0,2013-10-16 04:06:00
10:26 PM,21.2,21.2,100,30.19,2.0,SSW,3.5,-,N/A,Snow,Light Snow,210,2013-10-16 04:26:00
10:46 PM,21.2,21.2,100,30.19,2.5,SSW,4.6,-,N/A,Snow,Light Snow,210,2013-10-16 04:46:00
11:06 PM,21.2,21.2,100,30.19,1.2,SW,4.6,-,0.01,Snow,Light Snow,230,2013-10-16 05:06:00
11:26 PM,21.2,19.4,93,30.17,5.0,SW,4.6,-,0.01,Snow,Light Snow,220,2013-10-16 05:26:00
11:46 PM,21.2,19.4,93,30.17,7.0,SW,5.8,-,0.01,Snow,Light Snow,220,2013-10-16 05:46:00